Погода в Городовиковске

Погода в Городовиковске : погода сейчас, прогноз погоды и архив. Всё, что Вы хотите узнать о погоде в Городовиковске!

Хотите узнать прогноз погоды в Городовиковске? Тогда Вам сюда: Погода в Городовиковске

Поиск расширенной информации на нашем сайте:

Другие новости

Новости СМИ2

Главная страница сайта

Новости сайта

03.07.2017

Напоминаем, что на нашем специализированном сайте Метеоцентр.Азия вы можете получить высокодетализированные автоматические прогнозы погоды по пунктам России, СНГ и мира в авиационном формате (включающие направление и скорость ветра, видимость, явления погоды, количество и форму облачности, нижнюю и верхнюю границу облачности).


Погода в Городовиковске - сегодня

Время (UTC), дата Ветер
(°,м/с) 
Видим.   Явления Облачность Т
(°С)
Тd
(°С)
f(%) Тe
(°С)
Pmin
(гПа)
dP
(гПа)
Po
(мм)
O2
(г/м3)
Тmin Tmax R s Состояние
почвы
12 20.10.17 290 (З) 20000 м    10/10 600 м 
[Sc]
+14 +10.6 80 +17  1018.8  -0.4  756  288           
15 20.10.17 010 (С) 20000 м    10/10 600 м 
[Sc]
+13.2 +10.3 83 +15  1019.1  0.3  756  289    +14.8  0.0     
18 20.10.17 тихо ()   20000 м    9/8 600 м средняя 
[Sc|Ac As]
+11.4 +9.8 90 +12  1019.2  0.1  757  291           
21 20.10.17 тихо ()   20000 м  дымка  10/8 600 м средняя 
[Sc|Ac As]
+10.8 +9.9 94 +12  1018.8  -0.4  756  291           
00 21.10.17 тихо ()   20000 м    10/10 600 м 
[Sc]
+11.5 +10.1 91 +13  1018.1  -0.7  756  290           
03 21.10.17 тихо ()   20000 м    10/9 600 м средняя 
[Sc|Ac As]
+10.7 +9.4 92 +11  1017.8  -0.3  755  291  +9.7    0.0     
06 21.10.17 300 (СЗ) 20000 м    10/5 600 м средняя 
[Sc|Ac As]
+12.3 +9.8 85 +15  1017.2  -0.5  755  289           
09 21.10.17 230 (ЮЗ) 20000 м    10/8 600 м средняя 
[Sc|Ac As]
+13.5 +9.9 79 +15  1016.8  -0.4  755  288           
12 21.10.17 310 (СЗ) 20000 м    9/6 600 м средняя 
[Sc|Ac trans]
+14.5 +9 70 +15  1015.3  -1.4  754  287           
15 21.10.17 тихо ()   20000 м    10/10 600 м 
[Sc]
+12.8 +9.7 81 +13  1015.2  -0.2  754  288    +14.9       
18 21.10.17 100 (В) 20000 м    10/10 600 м 
[Sc]
+12.3 +9.3 82 +14  1014.8  -0.4  753  289           
21 21.10.17 тихо ()   20000 м    10/6 600 м средняя 
[Sc|Ac As]
+11.7 +9.5 86 +12  1013.8  -1.1  752  289           
00 22.10.17 220 (ЮЗ) 20000 м    10/8 600 м средняя 
[Sc|Ac As]
+10.8 +9.3 90 +12  1012.6  -1.1  752  290           
03 22.10.17 210 (ЮЗ) 10 км  слаб. ливневой дождь  10/8 300 м кучево-дожд., средняя 
[Cb calv|Ac As]
+10.6 +9.3 92 +12  1011.6  -1  751  290  +10.1    0.0     
06 22.10.17 240 (ЮЗ) 20000 м  {ливн. осадки}  10/10 600 м 
[Sc]
+11.8 +10 89 +13  1011.2  -0.4  751  288           
09 22.10.17 280 (З) 20000 м    10/5 600 м средняя 
[Sc|Ac As]
+14.6 +9.3 70 +15  1010.9  -0.2  750  285           
12 22.10.17 280 (З) 20000 м    10/10 600 м 
[Sc]
+15.1 +8.4 64 +16  1009.5  -1.4  749  285           
15 22.10.17 300 (СЗ) 10 км  слаб. ливневой дождь  10/10 300 м кучево-дожд. 
[Cb calv]
+12.1 +10.9 92 +14  1009.5  -0.1  749  287    +15.3     
18 22.10.17 010 (С) 4000 м  в посл. час ливневой дождь  10/10 600 м кучево-дожд. 
[Cb calv]
+7.9 +6.9 93 +8  1012  2.3  751  293           
21 22.10.17 040 (СВ) 20000 м  {ливн. осадки}  10/10 600 м 
[Sc]
+6.1 +4.8 91 +6  1015  753  296           
00 23.10.17 030 (СВ) 20000 м  {ливн. осадки}  10/10 600 м 
[Sc]
+4.9 +2.8 86 +5  1017.4  2.3  755  298           
03 23.10.17 020 (С) 20000 м    10/10 600 м 
[Sc]
+3.6 +2 89 +4  1019.2  1.7  756  300  +3.5       
06 23.10.17 090 (В) 20000 м    8/8 600 м 
[Sc]
+5 +2.8 86 +5  1021.7  2.5  758  300  +1.4         
09 23.10.17 100 (В) 20000 м    10/10 600 м 
[Sc]
+6.3 +1.8 73 +6  1022.1  0.5  759  298           
12 23.10.17 110 (В) 20000 м    10/10 600 м 
[Sc]
+7.4 +2.1 69 +7  1022.1  759  297           
Время (UTC), дата Ветер
(°,м/с) 
Видим.   Явления Облачность Т
(°С)
Тd
(°С)
f(%) Тe
(°С)
Pmin
(гПа)
dP
(гПа)
Po
(мм)
O2
(г/м3)
Тmin Tmax R s Состояние
почвы

Для получения пояснительной информации подведите курсор к названию столбца.

ПОГОДА в Городовиковске - архив

Всё, что Вы хотите узнать о погоде в Городовиковске - удобно и подробно!

Выберите нужную дату (начиная с 1 января 2015* года) и нажмите кнопку "Найти".
Будут отображены архивные сводки погоды по пункту Городовиковск, начиная с указанной даты.


Отображать данные в формате CSV (для использования в таблицах Excel)


Внимание! Наш архив погоды предназначен исключительно для личного некоммерческого использования в познавательных целях. Если Вам необходимы официальные справки о состоянии погоды (для производственных, юридических, коммерческих и т.п. целей), обращайтесь в органы Росгидромета.

*Примечание: данная дата относится к архиву по метеостанциям СССР (Россия, СНГ, Балтия).
Архив по метеостанциям Зарубежной Европы и Азии (кроме Китая) хранится 10 дней, по другим регионам земного шара (Китай, Африка, Америка, Австралия, Океания) - 1 день.

Городовиковск - район местоположения метеостанции


Название, широта, долгота, высота метеостанции:
Городовиковск 46.1°ш. 41.1°д. 86 м над ур. моря [Российская Федерация]

Дополнительная информация

В oтличие oт бoльшинства пoгoдных сайтoв мы публикуем пoдрoбную метеoинфoрмацию в детальнoм прoфессиoнальнoм фoрмате.

Характеристики температуры и влажнoсти вoздуха измеряются на высoте 2 м в тени вдали oт зданий и деревьев.
Скoрoсть ветра измеряется на высoте 10 м (на урoвне рoста челoвека скoрoсть ветра ниже в 1.5-2 раза). Если метеoстанция нахoдится в гoрoде или в лесу, тo скoрoсть ветра занижена на 2-4 м/с пo сравнению с oткрытым местoм. Скoрoсть ветра над акватoриями крупных рек и oзёр, а также на вершинах хoлмoв на 2-5 м/с выше, чем в oбычных услoвиях.
Атмoсфернoе давление в разных тoчках местнoсти мoжет значительнo oтличаться oт давления на метеoстанции, в зависимoсти oт услoвий рельефа (при пoдъёме на 10 м давление пoнижается примернo на 1 мм рт.ст.).